Regional Weather Roundup
Issued by NWS Charleston, SC

Current Version | Previous Version | Text Only | Print | Product List | Glossary Off
Versions: 1 2 3 4 5 6 7 8 9 10 11 12 13 14 15 16 17 18 19 20 21 22 23 24 25 26 27 28 29 30 31 32 33 34 35 36 37 38 39 40 41 42 43 44 45 46 47 48 49 50

000
ASUS42 KCHS 241610
RWRCHS

REGIONAL WEATHER ROUNDUP
NATIONAL WEATHER SERVICE CHARLESTON SC
1100 AM EST WED DEC 24 2014

NOTE: "FAIR" INDICATES FEW OR NO CLOUDS BELOW 12,000 FEET WITH NO
SIGNIFICANT WEATHER AND/OR OBSTRUCTIONS TO VISIBILITY.

NOT ALL STATIONS ARE QUALITY CONTROLLED BY THE NATIONAL
WEATHER SERVICE. USE DATA WITH CAUTION...ESPECIALLY
DEWPOINT OBSERVATIONS.

SCZ027-030-031-034>040-042>050-241700-
...SOUTHEAST SOUTH CAROLINA...

CITY           SKY/WX    TMP DP  RH WIND       PRES   REMARKS
N CHARLESTON   LGT RAIN  71  68  90 SW22G31   29.84S
WATERFRONT PRK   N/A     66 N/A N/A S22G28      N/A
MOUNT PLEASANT FAIR      72  70  94 S18G25    29.84F FOG
PINOPOLIS        N/A     73  70  88 S10       29.74F
MONCKS CORNER  TSTM      72  68  88 SW15G29   29.82S
SUMMERVILLE    CLOUDY    70  70 100 S13G26    29.83R
BEAUFORT MCAS  LGT RAIN  67  65  93 S10G28    29.82F
BEAUFORT ARPT  DRIZZLE   66  66 100 SW7       29.85R
HILTON HEAD IS RAIN      66  66 100 S14G23    29.86R
WALTERBORO     CLOUDY    70 N/A N/A S17       29.83R
ALLENDALE      HVY RAIN  70  68  94 W8        29.80R

...SOUTHERN MIDLANDS AND PEE DEE...

CITY           SKY/WX    TMP DP  RH WIND       PRES   REMARKS
GEORGETOWN     NOT AVBL
KINGSTREE      NOT AVBL
ORANGEBURG     LGT RAIN  70  65  84 SW18G28   29.79R
BARNWELL       RAIN      68  66  94 W3        29.79F
AIKEN          CLOUDY    59  59 100 SE8       29.80S
MANNING        CLOUDY    68 N/A N/A S8G16     29.79F
COLUMBIA       RAIN      57  56  96 CALM      29.78F FOG
SUMTER         LGT RAIN  68  66  94 S20G25    29.74F
FLORENCE       LGT RAIN  69  66  90 S16G24    29.78F FOG
MYRTLE BEACH   RAIN      72  68  88 SW14      29.85S FOG
N MYRTLE BEACH HVY RAIN  71  68  90 SW18G29   29.82F FOG

$$

GAZ063-065-086>088-099>101-113>116-118-119-134>141-150-241700-
...SOUTHEAST GEORGIA...

CITY           SKY/WX    TMP DP  RH WIND       PRES   REMARKS
SAVANNAH ARPT  LGT RAIN  69  66  90 S14       29.82F
HUNTER AAF     LGT RAIN  66  66 100 S12       29.81F
FORT STEWART   CLOUDY    70  68  94 S12G18    29.79F
STATESBORO     CLOUDY    69  69 100 W10G18    29.81R
SYLVANIA       RAIN      69  68  97 W12       29.81R
CLAXTON        CLOUDY    70  68  94 S6        29.79S

...CSRA...CENTRAL AND FAR SOUTHEAST GEORGIA...

CITY           SKY/WX    TMP DP  RH WIND       PRES   REMARKS
THOMSON        CLOUDY    60  60 100 CALM      29.78S
AUGUSTA-BUSH   LGT RAIN  61  61 100 SE9       29.76F FOG
AUGUSTA-DANIEL LGT RAIN  61  60  97 SE10      29.76S VSB 1/4
SWAINSBORO     HVY RAIN N/A N/A N/A S5        29.78F
VIDALIA        LGT RAIN  68  68 100 SW8       29.79S
EASTMAN        LGT RAIN  67  67 100 S8        29.79R
HAZLEHURST     RAIN      69  69 100 SW3       29.79R
ALMA           CLOUDY    71  68  90 SW9       29.81R
WAYCROSS       RAIN      73  72  95 S12G20    29.81S
JESUP          CLOUDY    73  72  94 SW9       29.82S
BAXLEY         HVY RAIN  68  66  94 W8        29.83R
BRUNSWICK      CLOUDY    70  64  83 S7        29.85S
SAINT SIMONS   CLOUDY    66  63  90 S12G20    29.85R

$$

SCZ027-028-034-036>038-045-046-048>050-GAZ119-141-241700-
...LAKE AND SUPPLEMENTAL COASTAL OBSERVATIONS...

STATION/POSITION TIME  TEMP    WIND        PRES    WAVE   SWELL
                       AIR SEA DIR/SP/G            HT/PER HT/PER/DIR
                 (UTC) (F)     (DEG/KT/KT) (MB)    (FT/S) (FT/S/D)
UPR LAKE MARION  NOT AVBL
WINYAH BAY       1500   68     220/ 12     1009.0S
LAKE MURRAY      1500   55      40/  2/  3 1007.8F
ACE BASIN NERRS  1500   67     170/  3     1010.0S
FORT PULASKI     1600   62 56  200/ 11/ 16 1011.2R
SAPELO ISLAND    1500   64     180/ 13     1010.0S

$$

ANZ835-935-AMZ111-154-330-350-352-354-370-450-454-472-241700-
...C-MAN AND BUOY OBSERVATIONS...

STATION/POSITION TIME  TEMP    WIND        PRES    WAVE   SWELL
                       AIR SEA DIR/SP/G            HT/PER HT/PER/DIR
                 (UTC) (F)     (DEG/KT/KT) (MB)    (FT/S) (FT/S/D)
BUOY 41004       1600   77 73  180/ 23/ 27 1009.8F   9/ 7   2/15
BUOY 41008       1600   64 59  180/ 17/ 19 1010.5R   6/ 7
FOLLY BEACH CMAN 1500   61     190/ 10/ 11 1011.1R
CAPERS NEARSHORE 1500   63     240/ 10/ 14   N/A
FRIPP NEARSHORE  NOT AVBL


STATION/POSITION TIME  TEMP    WIND        PRES    WAVE   SWELL
                       AIR SEA DIR/SP/G            HT/PER HT/PER/DIR
                 (UTC) (F)     (DEG/KT/KT) (MB)    (FT/S) (FT/S/D)
5E ST. MARYS GA  1600      61                N/A     5/ 6
FRYING PAN BUOY  1600   74 70  180/ 25/ 31 1011.0F   9/ 7
BUOY 41025       1600   75                 1012.5F   7/ 6
CAPE LOOKOUT NC  1500   64     160/ 17/ 18 1012.1F
BUOY 41002       1524   74 72  190/ 16/ 19 1016.7F   5/ 5   2/110/10
BUOY 41010       1600   77 77  180/ 21/ 25 1015.0F   5/ 6   2/100/10
ST AUGUSTINE FL  1600   75     210/ 12/ 16 1012.5R


$$


USA.gov is the U.S. government's official web portal to all federal, state and local government web resources and services.